Regional Weather Roundup
Issued by NWS

Home | Current Version | Previous Version | Text Only | Print | Product List | Glossary On
Versions: 1 2 3 4 5 6 7 8 9 10 11 12 13 14 15 16 17 18 19 20 21 22 23 24 25 26 27 28 29 30 31 32 33 34 35 36 37 38 39 40 41 42 43 44 45 46 47 48 49 50
000
ASUS43 KLMK 242010
RWRKY
KENTUCKY REGIONAL WEATHER ROUNDUP
NATIONAL WEATHER SERVICE LOUISVILLE KY
400 PM EDT MON JUL 24 2017

NOTE "FAIR" INDICATES FEW OR NO CLOUDS BELOW 12,000 FEET
WITH NO SIGNIFICANT WEATHER AND/OR OBSTRUCTIONS TO VISIBILITY.

KYZ001>023-026-027-061>063-070>075-242100-
WESTERN AND SOUTH CENTRAL KENTUCKY

CITY           SKY/WX    TMP DP  RH WIND       PRES   REMARKS
PADUCAH        CLOUDY    93  73  52 CALM      29.93F HX 102
HENDERSON      SUNNY     89  75  63 VRB7      29.94S HX  99
OWENSBORO      CLOUDY    86  74  67 N6        29.93S HX  94
HOPKINSVILLE   CLOUDY    87  75  67 S8        29.95F HX  97
BOWLING GREEN  MOSUNNY   91  71  51 VRB5      29.95F HX  97
GLASGOW        PTSUNNY   90  69  50 W5        29.96F HX  94
$$

KYZ024-025-028>034-038-045-046-053-242100-
NORTH CENTRAL KENTUCKY

CITY           SKY/WX    TMP DP  RH WIND       PRES   REMARKS
LOUISVILLE/SDF PTSUNNY   90  67  46 NW9       29.92F HX  93
LOUISVILLE/LOU MOSUNNY   91  62  37 NW9G18    29.93S HX  91
FORT KNOX      LGT RAIN  83  75  77 N15       29.94R HX  90
$$

KYZ035>037-039>044-047>052-055>060-089>105-242100-
NORTHEAST KENTUCKY

CITY           SKY/WX    TMP DP  RH WIND       PRES   REMARKS
LEXINGTON      CLOUDY    81  69  67 SW9       29.95S THUNDER
COVINGTON      PTSUNNY   83  67  58 N10       29.96S
FRANKFORT      MOSUNNY   87  65  47 NW6       29.93F
$$

KYZ054-064>069-076>088-106>120-242100-
SOUTHEAST KENTUCKY

CITY           SKY/WX    TMP DP  RH WIND       PRES   REMARKS
JACKSON        PTSUNNY   84  71  65 VRB3      29.96F
LONDON         PTSUNNY   89  61  38 W15       29.97F
SOMERSET       PTSUNNY   86  68  54 W10       29.98S
MIDDLESBORO    MOSUNNY   87  68  53 S7        29.98F HX  90
MONTICELLO     CLOUDY    87  74  64 W13G18    29.99F HX  95
$$




USA.gov is the U.S. government's official web portal to all federal, state and local government web resources and services.